sat.trackr.live / text

‹ back to catalog

STARLINK-2687

NORAD 48466 · 2021-040AQ

PAYLOAD ACTIVE UNKNOWN

§ Identity

Operator
Country
US
Launch date
2021-05-09
Launch site
AFETR
Launch vehicle
Mass (kg)
RCS (m²)

Purposes: comms

External: N2YO · Heavens-Above · Gunter

§ Orbital elements

Epoch: 2026-05-25T03:40:47.680032Z

Period
94.01 min
Inclination
53.1595°
Eccentricity
0.0001205
Mean motion
15.31700256 rev/d
Perigee alt
469.9 km
Apogee alt
471.6 km
Semi-major
6,848.9 km
B*
4.0499e-5
RAAN
195.4740°
Arg perigee
79.7458°
Mean anomaly
280.3679°
Rev number
27,822

§ Raw data

STARLINK-26871 48466U 21040AQ  26145.15332963  .00000892  00000+0  40499-4 0  99932 48466  53.1595 195.4740 0001205  79.7458 280.3679 15.31700256278222

JSON: /api/v1/satellites/48466 · /tle

For live sub-satellite position, see the globe view (requires WebGL).

§ Visibility from observer

Set your observer location to see the next 7 days of passes ≥ 10°. The values pass through the URL so the page stays shareable.

No JS? Fill the form by hand. The geolocation button needs JavaScript.